Location: Focicchia
(42.2496°N, 9.2935°E)
Time: 21:57:05
(UTC+00:00)

X-37B - Pass Details

Date: 01 August 2021
Orbit: 381 x 393 km, 45.0° (Epoch: 29 August)

Event Time Altitude Azimuth Distance (km) Brightness Sun altitude
Exits shadow 03:31:42 11° 233° (SW) 1,337 2.6 -7.9°
Maximum altitude 03:34:38 54° 155° (SSE) 468 0.9 -7.5°
Drops below altitude 10° 03:37:43 10° 77° (ENE) 1,399 4.8 -7.0°
Sets 03:39:49 0° 73° (ENE) 2,255 6.3 -6.7°
